, AK

(GMT )
Portage Glacier

Weather History for PATO - October, 2013

Change the Weather History Date:

Monday, October 7, 2013

  Actual Average Record
Temperature  
Mean Temperature 42 °F -  
Max Temperature 48 °F - - ()
Min Temperature 37 °F - - ()
Degree Days  
Heating Degree Days 22    
Moisture  
Dew Point 38 °F    
Average Humidity 83    
Maximum Humidity 97    
Minimum Humidity 63    
Precipitation  
Precipitation 0.10 in - - ()
Sea Level Pressure  
Sea Level Pressure 29.82 in    
Wind  
Wind Speed 6 mph (West)    
Max Wind Speed 15 mph    
Max Gust Speed 26 mph    
Visibility 9 miles    
Events Rain    
T = Trace of Precipitation, MM = Missing Value Source: NWS Daily Summary

Daily Weather History Graph

Daily Weather History Graph

Search for Another Location

Airport or City:

Trip Planner

Search our weather history database for the weather conditions in past years. The results will help you decide how hot, cold, wet, or windy it might be!

Date:

Astronomy

Oct. 07, 2013 Rise Set
Actual Time 8:17 AM AKDT 7:07 PM AKDT
Civil Twilight 7:34 AM AKDT 7:49 PM AKDT
Nautical Twilight 6:45 AM AKDT 8:39 PM AKDT
Astronomical Twilight 5:54 AM AKDT 9:29 PM AKDT
Moon 12:14 PM AKDT (10/7) 8:01 PM AKDT (10/7)
Length of Visible Light 12h 14m
Length of Day
10h 49m
Waxing Crescent, 9% of the Moon is Illuminated
Oct 7
Waxing Crescent
Oct 11
First Quarter
Oct 18
Full
Oct 26
Last Quarter
Nov 3
New

Hourly Weather History & Observations

Time (AKDT) Temp. Windchill Dew Point Humidity Pressure Visibility Wind Dir Wind Speed Gust Speed Precip Events Conditions
12:53 AM 39.9 °F 37.8 °F 39.0 °F 97% 29.73 in 10.0 mi WNW 3.5 mph - N/A   Overcast
1:53 AM 39.9 °F 35.1 °F 39.0 °F 97% 29.74 in 10.0 mi WNW 6.9 mph - N/A   Overcast
2:53 AM 41.0 °F 38.0 °F 39.0 °F 93% 29.75 in 10.0 mi NW 4.6 mph - N/A   Overcast
3:53 AM 41.0 °F 37.1 °F 39.0 °F 93% 29.75 in 10.0 mi West 5.8 mph - N/A   Overcast
4:53 AM 39.0 °F 34.0 °F 37.0 °F 93% 29.76 in 10.0 mi WNW 6.9 mph - N/A   Scattered Clouds
5:53 AM 39.0 °F 34.0 °F 37.9 °F 96% 29.78 in 10.0 mi WNW 6.9 mph - N/A   Mostly Cloudy
6:53 AM 39.0 °F 34.8 °F 37.0 °F 93% 29.79 in 10.0 mi West 5.8 mph - N/A   Mostly Cloudy
7:53 AM 39.0 °F 34.8 °F 37.0 °F 93% 29.80 in 10.0 mi WNW 5.8 mph - N/A   Overcast
8:53 AM 37.9 °F 32.7 °F 37.0 °F 97% 29.82 in 10.0 mi WSW 6.9 mph - N/A   Mostly Cloudy
9:53 AM 37.9 °F 32.7 °F 36.0 °F 93% 29.83 in 10.0 mi West 6.9 mph - N/A   Scattered Clouds
10:53 AM 41.0 °F 36.4 °F 37.0 °F 86% 29.84 in 10.0 mi West 6.9 mph - N/A   Scattered Clouds
11:53 AM 45.0 °F 40.1 °F 39.0 °F 80% 29.83 in 10.0 mi WNW 9.2 mph - N/A   Clear
12:53 PM 46.9 °F - 39.0 °F 74% 29.85 in 10.0 mi West 9.2 mph - N/A   Clear
1:53 PM 48.0 °F - 37.9 °F 68% 29.85 in 10.0 mi Variable 6.9 mph - N/A   Clear
2:53 PM 48.0 °F - 37.0 °F 66% 29.86 in 10.0 mi Variable 5.8 mph - N/A   Clear
3:53 PM 48.0 °F - 36.0 °F 63% 29.86 in 10.0 mi West 6.9 mph - N/A   Clear
4:53 PM 45.0 °F - 39.0 °F 80% 29.86 in 10.0 mi Calm Calm - N/A   Clear
5:53 PM 43.0 °F - 39.0 °F 86% 29.86 in 10.0 mi Calm Calm - N/A   Clear
6:53 PM 42.1 °F 38.4 °F 36.0 °F 79% 29.85 in 10.0 mi SE 5.8 mph - N/A   Overcast
7:53 PM 46.0 °F 42.5 °F 36.0 °F 68% 29.84 in 10.0 mi Variable 6.9 mph - N/A   Mostly Cloudy
8:53 PM 46.0 °F 40.6 °F 37.0 °F 71% 29.83 in 10.0 mi SE 11.5 mph 18.4 mph N/A   Overcast
9:53 PM 46.9 °F - 35.1 °F 63% 29.83 in 10.0 mi SE 10.4 mph 19.6 mph N/A   Overcast
10:53 PM 45.0 °F 38.5 °F 37.0 °F 74% 29.84 in 6.0 mi East 13.8 mph 26.5 mph 0.01 in Rain Light Rain
11:22 PM 44.1 °F 37.1 °F 37.9 °F 79% 29.84 in 4.0 mi ESE 15.0 mph 26.5 mph 0.03 in Rain Rain
11:53 PM 43.0 °F 36.0 °F 37.9 °F 82% 29.85 in 4.0 mi East 13.8 mph 26.5 mph 0.09 in Rain Rain